STARLINK-34316, 64707

Orbit data source: Space-Track

STARLINK-34316, 64707 is a payload satellite owned by SpaceX/Seattle (US) in LEO that was launched on Sat, 28 Jun 2025 UTC via an FALCON 9 launch vehicle from the Air Force Western Test Range (AFWTR). Payload-class satellites include a variety of spacecraft equipped with specific instruments for various scientific and technological missions. These include communications satellites like Starlink; space stations such as the ISS; scientific satellites like the Hubble; Earth observation satellites from companies like Planet Labs, Umbra, and HawkEye 360; GPS; miniature CubeSats for education and research; and military/defense satellites.

Loading next visibility...
Identifier
64707, 2025-142M
Orbit
LEO
Last TLE update
10 hours ago
Origin
Manufacturer
SpaceX/Seattle
Mission
Operational spacecraft
Bus & Motor
STARLINK V2MO, Unknown motor
Mass
575 kg wet, ~530 kg dry
Launch date (UTC)
2025-06-28 (3 weeks ago)
Launch vehicle
FALCON 9
Launch site
Air Force Western Test Range (AFWTR)
Object type
Payload
Rocket body
Debris
Shape & HBR
Unknown
Radar Cross Section
Large (>1 m²)

Expand to show TLE details & history

TLE from 10 hours ago
0 STARLINK-34316
1 64707U 25142M   25199.25002315 -.01911101  00000-0 -32178-1 0  9990
2 64707  70.0009 195.5597 0003710 278.4263 109.2574 15.54984183  4275
Epoch: 2025-07-18T06:00Z
TLE epoch observation values (Epoch: 2025-07-18T06:00:02Z)
Latitude
25.96972°
Longitude
179.40059°
Altitude
405.714 km
Speed
7.67 km/s
True Right ascension
13h 42m 51s
True Declination
25° 49' 39"
Sunlit
Object was in daylight at epoch
Visualization orbit readout
Latitude
-44.00334°
Longitude
147.58794°
Altitude
422.052 km
Speed
7.658 km/s
Apparent Right ascension
14h 25m 47s
Apparent Declination
-50° 33' 09"
Sunlit
Object is in daylight
Visualization observer readout
Local Sidereal Time
05:15:59
Azimuth
124.194° SE
Elevation
-58.706°
Doppler factor
1
Orbital elements
Apogee altitude
402.61 km
Perigee altitude
397.58 km
Semi-major axis
6,778.232 km
Eccentricity
0.00037
Inclination
70.0009°
RAAN
195.5597°
Arg. of periapsis
278.4263°
True anomaly
109.29753°
Mean anomaly
109.2574°
Eccentric anomaly
109.27746°
Mean motion
3.88927 °/min
Orbital period
92.56 mins
BSTAR
-0.032178
Loading maneuver chart data...
Loading SW <> Apogee altitude chart data...
Loading historical data...
Loading historical data...
Loading historical data...
Loading historical data...
Loading historical data...
Loading historical data...
Loading historical data...
|